Location: �clusier
(49.9361°N, 2.7869°E)
Time: 21:20:10
(UTC+00:00)

Cosmos 220 Rocket - Pass Details

Date: 16 June 2021
Orbit: 574 x 616 km, 74.0° (Epoch: 02 August)

Event Time Altitude Azimuth Distance (km) Brightness Sun altitude
Rises 20:35:43 0° 203° (SSW) 2,825 7.2 -5.0°
Reaches altitude 10° 20:37:57 10° 204° (SSW) 1,921 6.4 -5.3°
Maximum altitude 20:42:14 86° 289° (WNW) 596 4.0 -5.8°
Drops below altitude 10° 20:46:30 10° 23° (NNE) 1,912 6.9 -6.2°
Sets 20:48:43 0° 24° (NNE) 2,811 7.8 -6.4°
